Location: Makanda
(37.6176°N, 89.2090°W)
Time: 19:13:02
(UTC+00:00)

Cosmos 614 Rocket - Pass Details

Date: 23 September 2019
Orbit: 733 x 764 km, 74.1° (Epoch: 22 October)

Event Time Altitude Azimuth Distance (km) Brightness Sun altitude
Rises 01:22:17 0° 340° (NNW) 3,228 7.7 -18.1°
Reaches altitude 10° 01:24:40 10° 340° (NNW) 2,295 6.9 -18.6°
Maximum altitude 01:29:52 81° 254° (WSW) 768 4.0 -19.6°
Enters shadow 01:33:48 18° 168° (SSE) 1,801 5.6 -20.3°
